Погода в Микшине

Россия / Тверская область     57°14′29″N   35°42′44″E
темп.,
°C
ветер,
м/с
пор.,
м/с
влажн.,
%
обл.,
%
осадки,
мм/ч
давл.,
гПа
погр.,
м
23 октября, сб
сб2300:00+6юз71570100 0.0 9971596
03:00+5юз7147417 0.0 9971245
06:00+5юз6137570 0.0 9971183
09:00+5юз51075100 0.0 9981251
12:00+4ююз4996100 0.5 1000856
15:00+5з4981100 1.1 1002886
18:00+4зюз497844 0.0 1003453
21:00+4юз4987100 0.1 1005499
24 октября, вс
вс2400:00+4зюз3785100 0.0 1006526
03:00+2з389299 0.1 1007654
06:00+2з41096100 0.4 1008625
09:00+1сз51296100 0.8 1010638
12:00+2ссз6118590 0.6 10141027
15:00+2ссз6117183 0.8 10171445
18:00+1ссз5117917 0.1 1020817
21:00−1сз411835 0.1 1023601
25 октября, пн
пн2500:00−1сз39885 0.0 1025379
03:00−2сз269156 0.0 1026243
06:00−2зсз2488100 0.0 1028138
09:00−1зюз2580100 0.0 1028219
12:00+2юз4761100 0.0 1027596
15:00+3юз5116498 0.0 1025758
18:00+3юз51272100 0.0 1024616
21:00+2юз5138099 0.0 1023548
26 октября, вт
вт2600:00+1юз4128871 0.0 1023450
03:00+1юз41288100 0.0 1022406
06:000юз41387100 0.0 1021419
09:00+2юз41479100 0.0 1020508
12:00+4юз51370100 0.0 1019585
15:00+5юз51270100 0.0 1017655
18:00+3юз41281100 0.0 1018457
21:00+2юз41385100 0.0 1017447
27 октября, ср
ср2700:00+2юз41287100 0.0 1016372
03:00+1юз41190100 0.0 1015330
06:00+1юз41190100 0.0 1013360
09:00+2юз4992100 0.6 1013380
12:00+4зюз41091100 0.3 1012442
15:00+5зюз4991100 0.3 1012489
18:00+5зюз3994100 0.0 1012391
21:00+6з4119178 0.1 1013760